Location: Durdice
(49.6213°N, 14.5833°E)
Time: 01:14:11
(UTC+00:00)

Daily predictions for brighter satellites

Satellite Brightness Start Highest point End
(mag) Time Altitude Azimuth Time Altitude Azimuth Time Altitude Azimuth
SL-16 R/B 3.4 00:02:19 19° SSE 00:05:19 31° ESE 00:10:15 10° NE
SL-16 R/B 3.4 00:01:40 10° SE 00:07:36 49° ENE 00:13:35 10° N
Lacrosse 5 2.9 00:06:59 26° SSE 00:08:34 32° SE 00:13:05 10° ENE
USA 306 2.8 00:07:12 37° SW 00:08:43 69° SSE 00:12:53 10° ENE
Cosmos 1980 3.7 00:06:07 29° SSW 00:09:08 89° NW 00:14:49 10° NNE
Cosmos 371 Rocket 3.4 00:06:52 31° SW 00:09:11 70° WNW 00:14:03 10° NNE
USA 307 2.8 00:11:14 37° SW 00:12:44 65° SSE 00:16:54 10° ENE
Cosmos 2333 Rocket 3.9 00:08:00 10° W 00:12:46 27° NW 00:17:35 10° NNE
Meteor 2-10 Rocket 3.6 00:08:02 10° NNW 00:13:44 76° W 00:16:52 27° S
Cosmos 1269 Rocket 4.1 00:10:43 10° NNW 00:16:02 81° ENE 00:20:15 16° SSE
Cosmos 1709 Rocket 4.0 00:10:00 10° NNW 00:16:04 64° W 00:19:32 26° SSW
Cosmos 304 Rocket 3.7 00:15:45 32° SSW 00:18:02 89° WNW 00:22:54 10° NNE
USA 267 3.9 00:17:02 25° SSW 00:19:22 32° SW 00:25:06 10° WNW
Cosmos 2084 Rocket 3.7 00:19:40 35° S 00:20:42 44° SE 00:24:21 10° NE
Cosmos 2315 Rocket 4.1 00:18:32 26° SSW 00:22:21 79° W 00:28:47 10° N
Cosmos 2184 Rocket 4.4 00:18:18 10° N 00:24:30 60° ENE 00:30:23 11° SSE
USA 229 DEB 4.5 00:19:43 10° NW 00:26:25 38° WSW 00:30:40 22° SSW
USA 229 4.5 00:19:48 10° NW 00:26:32 39° WSW 00:30:48 22° S
Meteor 1-24 Rocket 3.9 00:25:26 22° S 00:29:01 63° E 00:34:24 10° NNE
COSMOS 2455 4.2 00:25:36 15° SSE 00:29:24 29° ESE 00:34:29 10° NE
Cosmos 1455 3.0 00:27:35 10° N 00:31:11 47° ENE 00:33:50 17° SE
Cosmos 2219 Rocket 3.9 00:27:17 10° W 00:31:51 25° NW 00:36:28 10° NNE
MOZ.5/SAFIR/RUBIN 5/SL-8 4.0 00:34:54 27° SSW 00:37:13 52° W 00:41:53 10° NNW
CZ-2D R/B 2.4 00:31:58 10° NNE 00:37:18 61° ESE 00:40:53 21° S
Cosmos 1271 Rocket 4.2 00:35:19 10° N 00:38:51 34° ENE 00:42:24 10° SE
Cosmos 1455 Rocket 3.3 00:35:55 10° NNW 00:40:17 55° W 00:42:28 27° SSW
Cosmos 1300 4.0 00:39:50 10° NNW 00:43:00 25° W 00:43:56 23° WSW
USA 308 2.8 00:40:45 22° WSW 00:43:25 88° NNW 00:47:38 10° ENE
Cosmos 1536 Rocket 4.3 00:48:05 16° SSE 00:51:21 47° E 00:55:34 10° NNE
Meteor 2-5 Rocket 3.8 00:50:14 22° SSW 00:54:03 76° WNW 00:59:45 10° N
SAR-Lupe-2 4.3 00:52:30 10° NNE 00:56:00 47° E 00:58:15 19° SSE
CZ-4C R/B 4.4 00:51:45 10° WNW 00:56:46 19° WSW 00:59:24 16° SW
ERBS 2.5 00:55:13 23° WSW 00:56:52 58° NNW 00:59:55 10° NE
Cosmos 1975 Rocket 3.6 00:56:40 23° SW 00:59:05 46° WNW 01:03:25 10° N
Nadezhda 1 Rocket 4.4 00:55:14 13° S 01:00:55 63° E 01:07:07 10° NNE
Cosmos 2237 Rocket 3.0 00:56:44 16° WSW 01:01:02 44° NW 01:06:31 10° NNE
Cosmos 1025 Rocket 3.4 01:00:08 23° SW 01:02:33 51° WNW 01:06:45 10° N
Resurs 1-4 Rocket 2.1 00:57:54 10° NNE 01:03:12 83° WNW 01:07:01 19° SSW
SME Rocket 4.1 01:03:28 22° SW 01:05:27 34° W 01:10:12 10° NNW
USA 305 3.2 01:02:25 12° W 01:06:16 65° NNW 01:10:26 10° ENE
USA-17 4.5 01:03:04 10° NW 01:06:20 87° SW 01:10:29 10° SE
Gblst 52 Del rocket 4.3 01:02:41 10° WNW 01:08:35 77° N 01:14:05 10° E
CZ-4 R/B 3.8 01:05:21 10° N 01:09:59 71° WNW 01:13:13 20° SSW
YAOGAN 11 4.1 01:09:44 14° S 01:13:32 70° WSW 01:18:05 10° NNW
Cosmos 1943 Rocket 2.5 01:08:47 10° NW 01:14:12 47° WSW 01:19:23 11° S
IDEFIX/ARIANE 42P 3.0 01:10:59 10° NNE 01:16:14 61° ESE 01:21:05 12° S
Lacrosse 5 rocket 1.5 01:14:37 22° SSW 01:16:57 56° SE 01:20:58 10° ENE
ADEOS II 2.2 01:11:49 10° NNE 01:17:06 73° ESE 01:21:40 14° S
Cosmos 614 Rocket 4.0 01:14:05 10° NNW 01:19:15 68° WSW 01:24:26 10° S
UNK 3.8 01:15:35 15° S 01:19:21 59° W 01:23:56 10° NNW
Cosmos 2297 3.9 01:14:27 10° NW 01:20:04 54° WSW 01:25:37 10° S
USA 215 4.2 01:18:41 10° ENE 01:24:53 48° N 01:31:07 10° WNW
Cosmos 1544 Rocket 4.3 01:22:40 10° NNW 01:26:42 35° W 01:29:32 17° SSW
Cosmos 1703 3.5 01:24:41 13° S 01:28:05 70° E 01:32:00 10° NNE
IRS-1D 4.4 01:23:25 10° NNE 01:28:36 48° E 01:33:42 10° S
Cosmos 2278 Rocket 4.2 01:27:51 10° W 01:29:03 11° W 01:30:15 10° WSW
Helios 1A 2.9 01:25:34 10° S 01:29:46 75° WSW 01:34:01 10° NNW
Cosmos 2251 Rocket 3.5 01:24:59 10° NNW 01:30:17 86° WSW 01:35:34 10° SSE
Cosmos 2154 Rocket 4.1 01:24:43 10° NNW 01:31:00 66° W 01:37:14 10° S
EO 1 Del DPAF 3.0 01:29:52 10° NNE 01:33:24 81° ESE 01:36:19 14° SSW
MOS 1 Rocket 3.5 01:33:16 14° SSW 01:36:45 44° W 01:40:55 10° NNW
NPP 4.0 01:31:44 10° N 01:37:00 55° WNW 01:41:35 14° SW
Cosmos 2369 Rocket 2.2 01:37:52 10° NNW 01:43:26 68° WSW 01:48:59 10° SSE
MOS 1-B Rocket 4.4 01:40:01 10° SSE 01:45:30 63° ENE 01:51:20 10° N
Cosmos 1656 Rocket 3.5 01:41:26 10° NNW 01:46:52 78° WSW 01:52:17 10° SSE
USA 306 3.7 01:44:23 10° W 01:48:28 50° N 01:52:32 10° ENE
SL-16 R/B 2.7 01:44:11 12° SW 01:49:13 52° NW 01:54:46 10° NNE
Meteor 1-28 Rocket 3.8 01:46:34 12° SSW 01:49:47 38° W 01:53:18 10° NNW
CZ-2C R/B 4.4 01:45:29 10° NE 01:49:49 27° E 01:54:02 10° SSE
Lacrosse 5 2.1 01:46:11 10° WSW 01:51:16 72° NNW 01:56:23 10° NE
Cosmos 1726 Rocket 3.8 01:46:55 10° N 01:51:21 75° E 01:55:43 10° SSE
SL-16 R/B 3.2 01:45:53 11° SSW 01:51:23 35° W 01:57:03 10° NNW
Meteor 1-21 Rocket 4.3 01:46:19 10° S 01:51:57 82° E 01:57:32 10° NNE
USA 307 3.6 01:48:24 10° W 01:52:30 51° N 01:56:36 10° ENE
Cosmos 1455 4.1 02:04:09 10° NW 02:06:17 15° W 02:08:23 10° WSW
Cosmos 1603 3.9 02:07:07 10° SSW 02:12:43 71° ESE 02:18:23 10° NNE
DNEPR-1 R/B 4.1 02:09:13 10° SSW 02:13:20 56° ESE 02:17:58 10° NE
Cosmos 2228 3.8 02:09:54 10° NNW 02:13:52 34° W 02:17:48 10° SSW
Cosmos 407 Rocket 3.5 02:08:55 10° NNW 02:14:12 66° WSW 02:19:25 10° S
Cosmos 1271 Rocket 4.2 02:11:38 10° NW 02:14:34 21° W 02:17:31 10° SW
COSMOS 2455 3.1 02:08:57 10° SW 02:14:56 64° NW 02:20:58 10° NNE
Cosmos 2218 Rocket 4.1 02:09:48 10° N 02:16:05 87° W 02:22:23 10° S
CZ-2D R/B 3.6 02:12:39 10° N 02:16:58 25° WNW 02:21:12 10° WSW
Cosmos 1140 Rocket 3.7 02:17:15 10° NNW 02:22:23 54° WSW 02:27:28 10° S
USA 308 3.9 02:19:18 10° W 02:23:21 46° N 02:27:24 10° ENE
MSX 4.2 02:18:45 10° N 02:24:22 55° WNW 02:29:59 10° SW
SeaSat 1 4.4 02:21:08 10° NE 02:25:09 24° ESE 02:29:09 10° SSE
SL-24 DEB 4.3 02:20:47 10° S 02:25:31 82° W 02:30:15 10° N
NOSS 3-4 (A) 4.2 02:19:47 10° NW 02:26:35 73° NE 02:34:19 10° SE
NOSS 3-4 (C) 4.2 02:19:51 10° NW 02:26:39 73° NE 02:34:21 10° SE
